Please be sure to check the latest weather conditions by clicking the link and viewing our local weather information!

Check Weather

Welcome to Lakeway Airpark (3R9)

FromTheAir

We’re a community airpark nestled within the town of Lakeway, Texas (17 miles northwest of downtown Austin).

Lakeway Airpark, Inc. was formed by Lakeway residents and interested parties to own and manage Lakeway Airpark (3R9).

The Airpark is a privately owned not for profit public use airport for residents and guests of Lakeway. No public funds are used and the airport is supported by fees and fuel sales at the airport.

Lakeway Airpark is an unmanned facility open for use from Sunrise to Sunset seven days a week. Takeoffs and landings are not permitted at night, between Sunset and Sunrise, by City Ordinance.

Quick Weather Info

Available data for KAUS from the past 2 hours
AUSTIN, TX
Metar
KAUS 161153Z 35012KT 10SM SCT013 BKN020 OVC026 10/08 A3016 RMK AO2 DZE18 SLP214 P0000 60032 70255 T01000078 10100 20089 58001

11:53 UTC

Wind: 350° 12kt

Visibility: 10 SM

Sky: SCT 1300 ft

Temp: 10 deg C / 50 deg F

Dewpoint: 8 deg C / 46.4 deg F

Pressure: 30.16 inHg

TAF
KAUS 161133Z 1612/1718 35010KT P6SM VCSH OVC015
Pirep (1)
AUS UA /OV CWK270015/TM 1220/FL120/TP A320/TB MOD/RM FM KZHU AWC-WEB/